Moses Lake, WA
on Wednesday, February 6, 2013

Wednesday
Previous Day Next Day
Daily Summary
 ActualAverageRecord
Temperature
Mean Temperature °F 33°F  
Max Temperature 49°F 41°F 50°F (1998)
Min Temperature 28°F 26°F -4°F (1985)
Degree Days
Heating Degree Days 26 32  
Month to date heating degree days 178 193  
Since 1 July heating degree days 3532 3867  
Cooling Degree Days 0 0  
Month to date cooling degree days 0 0  
Year to date cooling degree days 0 0  
Moisture
Dew Point 29°F   
Average Humidity 69    
Maximum Humidity 92    
Minimum Humidity 46    
Precipitation
Precipitation 0.00 in 0.04 in 0.14 in (1999)
Month to date precipitation 0.00 0.23  
Year to date precipitation 0.28 1.37  
Wind
Wind Speed 6 mph   
Max Wind Speed 14 mph   
Max Gust Speed 17 mph   
Visibility 10 miles   
Events     

Key: T is trace of precipitation, MM is missing value
Source: NWS Daily Summary
Time(PST)TemperatureDew PointHumidity Pressure Visibility Wind DirectionWind SpeedGust SpeedPrecipitationEvents Conditions
12:52 AM 28.9°F 25.0°F 85% 29.96 in 9.0 miles NE 3.5 mph - N/A   Clear
1:52 AM 33.1°F 28.9°F 85% 29.96 in 10.0 miles SSW 6.9 mph - N/A   Clear
2:52 AM 34.0°F 30.0°F 85% 29.96 in 10.0 miles SSW 6.9 mph - N/A   Partly Cloudy
3:52 AM 34.0°F 28.9°F 82% 29.98 in 10.0 miles SSW 4.6 mph - N/A   Clear
4:52 AM 30.2°F 26.6°F 86% 29.97 in 10.0 miles Calm Calm - N/A   Scattered Clouds
5:52 AM 30.0°F 26.1°F 85% 30.01 in 10.0 miles SSE 5.8 mph - N/A   Clear
6:52 AM 32.0°F 27.0°F 82% 30.02 in 10.0 miles South 8.1 mph - N/A   Clear
7:52 AM 33.1°F 27.0°F 78% 30.04 in 10.0 miles Calm Calm - N/A   Clear
8:52 AM 37.9°F 30.0°F 73% 30.06 in 10.0 miles South 4.6 mph - N/A   Clear
9:52 AM 42.1°F 32.0°F 67% 30.07 in 10.0 miles SW 10.4 mph - N/A   Clear
10:52 AM 46.0°F 32.0°F 58% 30.07 in 10.0 miles SSW 12.7 mph - N/A   Clear
11:52 AM 46.9°F 32.0°F 56% 30.06 in 10.0 miles SSW 9.2 mph - N/A   Clear
12:52 PM 48.9°F 32.0°F 52% 30.05 in 10.0 miles SSW 9.2 mph - N/A   Clear
1:52 PM 48.0°F 30.0°F 50% 30.04 in 10.0 miles SW 9.2 mph - N/A   Clear
2:52 PM 48.9°F 30.0°F 48% 30.04 in 10.0 miles SW 5.8 mph - N/A   Clear
3:52 PM 48.0°F 28.9°F 48% 30.03 in 10.0 miles South 5.8 mph - N/A   Mostly Cloudy
4:52 PM 44.1°F 30.9°F 60% 30.03 in 10.0 miles SSE 4.6 mph - N/A   Overcast
5:52 PM 43.0°F 30.0°F 60% 30.02 in 10.0 miles ESE 4.6 mph - N/A   Mostly Cloudy
6:52 PM 41.0°F 30.9°F 67% 30.01 in 10.0 miles East 5.8 mph - N/A   Overcast
7:52 PM 39.9°F 30.9°F 70% 30.00 in 10.0 miles ESE 3.5 mph - N/A   Overcast
8:52 PM 39.2°F 30.2°F 70% 29.95 in 10.0 miles ENE 5.8 mph - N/A   Mostly Cloudy
9:52 PM 36.0°F 28.9°F 76% 29.97 in 10.0 miles Calm Calm - N/A   Partly Cloudy
10:52 PM 37.9°F 30.0°F 73% 29.94 in 10.0 miles ENE 4.6 mph - N/A   Partly Cloudy
11:52 PM 36.0°F 28.9°F 76% 29.93 in 10.0 miles NNE 3.5 mph - N/A   Scattered Clouds
Moon Phase
Feb. 06 Feb. 10 Feb. 17 Feb. 25 Mar. 04
Sunrise:07:15 AM (PST) Moon Rise:04:11 AM (PST)2/6
Sunset:05:07 PM (PST) Moon Set:01:23 PM (PST)2/6

Copyright © 2014 The Weather Underground, Inc.